Location: Kumla
(59.1265°N, 15.1401°E)
Time: 20:23:25
(UTC+01:00)

Transit 2A - Pass Details

Date: 06 December 2023
Orbit: 600 x 953 km, 66.7° (Epoch: 24 February)

Event Time Altitude Azimuth Distance (km) Brightness Sun altitude
Rises 00:37:08 0° 307° (NW) 2,872 - -52.4°
Reaches altitude 10° 00:39:57 10° 289° (WNW) 1,952 - -52.2°
Maximum altitude 00:42:54 18° 246° (WSW) 1,495 - -52.1°
Drops below altitude 10° 00:45:51 10° 203° (SSW) 1,962 - -52.0°
Sets 00:48:42 0° 184° (S) 2,892 - -51.9°
